KD7RJ Weather Reports


time (UTC)temp
F
wind
direction
speed
knots
gust
knots
rain 1hr
in
rain 24hr
in
rain mn
in
humidity
%
barometer
mb
20260508104517 51 55 0.0 0.0 0.00 0.00 0.00 88 1016.9
20260508103017 51 55 0.0 0.0 0.00 0.00 0.00 89 1016.8
20260508101517 51 55 0.0 0.0 0.00 0.00 0.00 89 1016.7
20260508100016 51 55 0.0 0.0 0.00 0.00 0.00 88 1016.7
20260508094515 51 55 0.0 0.0 0.00 0.00 0.00 88 1016.5
20260508093015 51 55 0.0 0.0 0.00 0.00 0.00 87 1016.3
20260508091528 51 55 0.0 0.0 0.00 0.00 0.00 87 1016.2
20260508090116 51 55 0.0 0.0 0.00 0.00 0.00 86 1016.2
20260508084555 51 55 0.0 0.0 0.00 0.00 0.00 86 1016.1
20260508083054 51 55 0.0 0.0 0.00 0.00 0.00 85 1016.0
20260508081533 52 55 0.0 0.0 0.00 0.00 0.00 84 1015.9
20260508080031 52 55 0.0 0.0 0.00 0.00 0.00 82 1015.8
20260508074511 53 55 0.0 0.0 0.00 0.00 0.00 81 1015.8
20260508073010 54 55 0.0 0.0 0.00 0.00 0.00 80 1015.7
20260508071554 54 55 0.0 0.0 0.00 0.00 0.00 79 1015.7
20260508070053 54 55 0.0 0.0 0.00 0.00 0.00 78 1015.7
20260508064535 55 55 0.0 0.0 0.00 0.00 0.00 76 1015.6
20260508063043 56 55 0.0 0.0 0.00 0.00 0.00 74 1015.7
20260508061507 56 55 0.0 0.0 0.00 0.00 0.00 72 1015.6
20260508060005 57 55 0.0 0.0 0.00 0.00 0.00 69 1015.7
20260508054544 58 55 0.0 0.0 0.00 0.00 0.00 67 1015.7
20260508053052 59 55 0.0 0.0 0.00 0.00 0.00 64 1015.7
20260508051520 60 55 0.0 0.0 0.00 0.00 0.00 62 1015.6
20260508050015 61 55 0.0 0.0 0.00 0.00 0.00 58 1015.5
20260508044558 62 55 0.0 0.0 0.00 0.00 0.00 57 1015.5
20260508043056 62 55 0.0 3.5 0.00 0.00 0.00 56 1015.4
20260508041537 62 47 0.0 1.7 0.00 0.00 0.00 56 1015.4
20260508040036 63 47 0.0 0.0 0.00 0.00 0.00 57 1015.3
20260508034523 64 47 0.0 4.3 0.00 0.00 0.00 58 1015.2
20260508033022 64 38 0.9 3.5 0.00 0.00 0.00 57 1015.1
20260508031553 65 37 0.0 1.7 0.00 0.00 0.00 56 1014.9
20260508030051 66 37 0.9 4.3 0.00 0.00 0.00 55 1014.7
20260508024532 67 34 0.0 4.3 0.00 0.00 0.00 52 1014.8
20260508023032 68 36 0.0 3.5 0.00 0.00 0.00 51 1015.0
20260508021505 69 39 0.9 3.5 0.00 0.00 0.00 46 1015.0
20260508020001 71 44 1.7 5.2 0.00 0.00 0.00 43 1014.9
20260508014546 73 66 0.9 4.3 0.00 0.00 0.00 41 1015.1
20260508013045 73 61 0.0 4.3 0.00 0.02 0.00 41 1015.2
20260508011549 73 28 0.9 5.2 0.00 0.02 0.00 44 1015.3
20260508010057 74 179 0.0 0.0 0.00 0.02 0.00 43 1015.4
20260508004542 75 180 0.0 0.0 0.00 0.02 0.00 42 1015.5
20260508003040 74 180 0.0 4.3 0.00 0.04 0.00 44 1015.6
20260508001537 74 169 0.9 3.5 0.00 0.04 0.00 45 1015.7
20260508000044 73 251 0.0 4.3 0.00 0.04 0.00 44 1015.8
20260507234534 73 304 0.0 3.5 0.00 0.04 0.00 45 1016.0
20260507233038 72 256 0.0 1.7 0.00 0.04 0.00 45 1016.1
20260507231511 74 300 0.9 7.0 0.00 0.04 0.00 41 1016.3
20260507230019 74 332 1.7 6.1 0.00 0.04 0.00 43 1016.6
20260507224549 73 326 0.0 7.0 0.00 0.04 0.00 43 1016.8
20260507223132 71 327 0.9 4.3 0.00 0.04 0.04 44 1017.0
20260507221530 72 321 0.9 8.7 0.00 0.04 0.04 43 1017.2
20260507220023 70 323 0.9 5.2 0.00 0.04 0.04 47 1017.5
20260507214504 70 285 0.9 7.0 0.00 0.04 0.04 47 1017.6
20260507213004 70 259 0.9 7.0 0.00 0.04 0.04 49 1017.7
20260507211548 69 351 0.9 6.1 0.00 0.04 0.04 51 1017.8
20260507210047 68 279 0.0 4.3 0.00 0.04 0.04 50 1018.1
20260507204527 67 274 1.7 6.1 0.00 0.04 0.04 53 1018.3
20260507203032 65 139 0.9 4.3 0.00 0.04 0.04 55 1018.4
20260507201502 64 25 0.9 7.0 0.00 0.04 0.04 56 1018.6
20260507200110 64 313 1.7 7.0 0.00 0.04 0.04 57 1018.8
20260507200000 64 286 0.9 7.0 0.00 0.04 0.04 57 1018.8
20260507194542 63 209 0.9 3.5 0.00 0.04 0.04 57 1019.0
20260507193046 62 213 0.0 6.1 0.00 0.04 0.04 60 1019.1
20260507191525 62 217 1.7 5.2 0.00 0.04 0.04 60 1019.2
20260507190032 62 58 0.0 5.2 0.00 0.04 0.04 61 1019.3
20260507184509 61 309 0.0 4.3 0.00 0.04 0.04 61 1019.5
20260507183006 61 19 0.0 5.2 0.00 0.04 0.04 61 1019.6
20260507181545 60 51 0.0 3.5 0.00 0.04 0.04 62 1019.8
20260507180047 60 34 0.0 1.7 0.00 0.04 0.04 64 1019.9
20260507174526 59 35 0.0 3.5 0.00 0.04 0.04 67 1020.1
20260507173025 58 327 0.0 3.5 0.00 0.04 0.04 68 1020.2
20260507171507 57 5 0.0 4.3 0.00 0.04 0.04 69 1020.2
20260507170007 57 42 0.9 5.2 0.00 0.04 0.04 70 1020.3
20260507164550 56 43 0.9 5.2 0.00 0.04 0.04 71 1020.2
20260507163049 55 42 0.9 4.3 0.00 0.04 0.04 72 1020.3
20260507161532 54 45 0.9 5.2 0.00 0.04 0.04 73 1020.2
20260507160032 54 47 1.7 7.0 0.00 0.04 0.04 73 1020.3
20260507154513 53 57 0.0 2.6 0.00 0.04 0.04 75 1020.3
20260507153013 53 57 0.0 5.2 0.00 0.04 0.04 76 1020.3
20260507151559 53 52 0.0 4.3 0.00 0.04 0.04 77 1020.3
20260507150056 53 51 0.9 3.5 0.00 0.04 0.04 77 1020.3
20260507144536 52 50 0.0 2.6 0.00 0.04 0.04 79 1020.2
20260507143036 52 50 0.9 3.5 0.00 0.04 0.04 80 1020.1
20260507141523 52 50 0.0 0.0 0.00 0.04 0.04 82 1020.1
20260507140022 52 50 0.0 3.5 0.00 0.04 0.04 82 1020.0
20260507134522 52 50 0.0 0.0 0.00 0.04 0.04 81 1019.9
20260507133022 52 50 0.0 1.7 0.00 0.04 0.04 81 1019.8
20260507131526 52 50 0.0 0.0 0.00 0.04 0.04 82 1019.6
20260507130020 52 50 0.0 0.0 0.00 0.04 0.04 82 1019.7
20260507124519 52 50 0.0 0.0 0.00 0.04 0.04 82 1019.7
20260507123018 52 50 0.0 0.0 0.00 0.04 0.04 83 1019.7
20260507121604 52 50 0.0 0.0 0.00 0.04 0.04 83 1019.8
20260507114542 52 50 0.0 0.0 0.00 0.04 0.04 85 1020.0
20260507113041 52 50 0.0 0.0 0.00 0.04 0.04 83 1020.0
20260507111523 52 50 0.0 0.0 0.00 0.04 0.04 82 1020.0
20260507110026 53 50 0.0 0.0 0.00 0.04 0.04 81 1020.1